This demonstration page uses our WeatherBlox Daily Observations layout. Learn more.

Left ArrowRight Arrow

Hourly Observations for April 27, 2018

Temp ( °F °C ) Dew Point ( °F °C ) Humidity (%) Winds ( mph kmh ) Pressure ( in mb ) Visibility ( mi km ) Precip ( " mm )
12:52 am 00:52 Clear 51 10.6 46 7.8 83 83 WSW 7 11 30.00 1016 10 16 0.00 0.00
1:52 am 01:52 Clear 52 11.1 46 7.8 80 80 W 7 11 29.98 1015 10 16 0.00 0.00
2:52 am 02:52 Mostly Clear 51 10.6 45 7.2 80 80 WSW 8 13 29.97 1015 10 16 0.00 0.00
3:52 am 03:52 Mostly Cloudy 51 10.6 45 7.2 80 80 W 9 15 29.97 1015 10 16 0.00 0.00
4:52 am 04:52 Clear 51 10.6 45 7.2 80 80 WNW 7 11 29.98 1015 10 16 0.00 0.00
5:52 am 05:52 Clear 47 8.3 43 6.1 86 86 NNW 8 13 29.99 1016 10 16 0.00 0.00
6:52 am 06:52 Sunny 46 7.8 41 5 83 83 NW 7 11 30.01 1016 10 16 0.00 0.00
7:52 am 07:52 Sunny 51 10.6 42 5.6 71 71 NNW 6 9 30.02 1017 10 16 0.00 0.00
8:52 am 08:52 Sunny 55 12.8 38 3.3 53 53 NNW 13 20 30.02 1017 10 16 0.00 0.00
9:52 am 09:52 Sunny 58 14.4 36 2.2 44 44 NNW 15 24 30.03 1017 10 16 0.00 0.00
10:52 am 10:52 Sunny 61 16.1 36 2.2 39 39 NW 15 24 30.04 1017 10 16 0.00 0.00
11:52 am 11:52 Sunny 64 17.8 35 1.7 34 34 N 14 22 30.04 1017 10 16 0.00 0.00
12:52 pm 12:52 Sunny 66 18.9 38 3.3 36 36 NNW 13 20 30.02 1017 10 16 0.00 0.00
1:52 pm 13:52 Sunny 66 18.9 38 3.3 36 36 NW 9 15 30.00 1016 10 16 0.00 0.00
2:52 pm 14:52 Sunny 68 20 37 2.8 32 32 NNW 12 19 29.98 1015 10 16 0.00 0.00
3:52 pm 15:52 Sunny 68 20 37 2.8 32 32 NW 8 13 29.96 1015 10 16 0.00 0.00
4:52 pm 16:52 Sunny 68 20 36 2.2 31 31 W 12 19 29.95 1014 10 16 0.00 0.00
5:52 pm 17:52 Sunny 68 20 37 2.8 32 32 WNW 13 20 29.94 1014 10 16 0.00 0.00
6:52 pm 18:52 Sunny 67 19.4 38 3.3 35 35 W 12 19 29.94 1014 10 16 0.00 0.00
7:52 pm 19:52 Sunny 64 17.8 39 3.9 40 40 W 6 9 29.94 1014 10 16 0.00 0.00
8:52 pm 20:52 Clear 55 12.8 40 4.4 57 57 SW 6 9 29.96 1014 10 16 0.00 0.00
9:52 pm 21:52 Clear 53 11.7 39 3.9 59 59 SSW 7 11 29.96 1014 10 16 0.00 0.00
10:52 pm 22:52 Clear 53 11.7 39 3.9 59 59 SW 9 15 29.95 1014 10 16 0.00 0.00
11:52 pm 23:52 Clear 53 11.7 39 3.9 59 59 SW 9 15 29.93 1014 10 16 0.00 0.00

Powered by AerisWeather